Simultaneous Nadir Overpasses (SNOs) Predictions

Prediction of SNOs between GOES-16 and NOAA-20 Satellite Orbit:

Table of predicted SNOs for the next 14.0 days since TLE Epoch: 6/1/2024
Index Date Time (GOES-16) GOES-16 Lat,Lon NOAA-20 Lat,Lon Distance(km) Time Diff (sec)
1 06/01/2024 18:20:52 0.00, -75.20 0.21, -74.36 95.88 80
2 06/04/2024 06:23:49 -0.00, -75.22 -0.03, -75.08 15.68 80
3 06/06/2024 18:29:34 0.01, -75.24 -0.15, -75.83 68.38 80
4 06/07/2024 18:08:07 0.01, -75.24 0.90, -71.30 449.96 80
5 06/09/2024 06:32:31 -0.01, -75.27 0.26, -76.56 147.07 80
6 06/10/2024 06:11:04 -0.01, -75.28 -0.74, -72.02 371.73 80
7 06/11/2024 18:35:36 0.01, -75.30 -0.43, -77.31 228.72 80
8 06/12/2024 18:14:09 0.01, -75.32 0.58, -72.77 290.76 80
9 06/14/2024 06:38:33 -0.00, -75.36 0.58, -78.03 304.47 80
